TimeCST,TemperatureF,Dew PointF,Humidity,Sea Level PressureIn,VisibilityMPH,Wind Direction,Wind SpeedMPH,Gust SpeedMPH,PrecipitationIn,Events,Conditions,WindDirDegrees,DateUTC
12:53 AM,32.0,30.0,92,29.44,0.8,WNW,13.8,-,0.04,Snow,Light Snow,290,2013-02-19 06:53:00
1:13 AM,32.0,30.0,92,29.41,1.0,WNW,15.0,-,0.01,Snow,Light Snow,290,2013-02-19 07:13:00
1:28 AM,32.0,30.2,93,29.41,0.8,West,16.1,-,N/A,Snow,Light Snow,280,2013-02-19 07:28:00
1:39 AM,32.0,30.0,92,29.41,1.0,WNW,17.3,-,0.02,Snow,Light Snow,290,2013-02-19 07:39:00
1:53 AM,32.0,30.0,92,29.44,1.0,WNW,17.3,-,0.02,Snow,Light Snow,290,2013-02-19 07:53:00
2:14 AM,32.0,28.9,88,29.41,1.5,WNW,16.1,-,0.00,Snow,Light Snow,290,2013-02-19 08:14:00
2:33 AM,30.0,28.0,92,29.41,1.5,West,15.0,-,0.00,Snow,Light Snow,280,2013-02-19 08:33:00
2:49 AM,30.2,28.4,93,29.42,2.0,WNW,16.1,27.6,0.00,Snow,Light Snow,300,2013-02-19 08:49:00
2:53 AM,30.0,27.0,88,29.44,2.5,WNW,18.4,27.6,0.00,Snow,Light Snow,300,2013-02-19 08:53:00
2:57 AM,30.0,27.0,88,29.42,3.0,WNW,13.8,23.0,0.00,Snow,Light Snow,290,2013-02-19 08:57:00
3:05 AM,30.2,26.6,86,29.42,2.5,WNW,16.1,-,N/A,Snow,Light Snow,290,2013-02-19 09:05:00
3:53 AM,30.0,27.0,88,29.46,3.0,West,13.8,-,0.00,Snow,Light Snow,270,2013-02-19 09:53:00
4:01 AM,28.9,27.0,92,29.44,2.5,WSW,15.0,-,0.00,Snow,Light Snow,250,2013-02-19 10:01:00
4:09 AM,27.0,24.1,89,29.45,1.5,West,18.4,23.0,0.00,Snow,Light Snow,260,2013-02-19 10:09:00
4:16 AM,27.0,23.0,85,29.45,1.2,West,19.6,-,0.00,Snow,Light Snow,270,2013-02-19 10:16:00
4:23 AM,26.1,23.0,88,29.45,1.2,West,16.1,25.3,0.00,Snow,Light Snow,270,2013-02-19 10:23:00
4:33 AM,26.1,23.0,88,29.45,1.2,West,16.1,27.6,0.00,Snow,Light Snow,270,2013-02-19 10:33:00
4:53 AM,26.1,23.0,88,29.48,1.8,West,18.4,25.3,0.01,Snow,Light Snow,270,2013-02-19 10:53:00
5:20 AM,26.1,23.0,88,29.47,1.8,WNW,20.7,27.6,0.00,Snow,Light Snow,290,2013-02-19 11:20:00
5:28 AM,25.0,21.0,85,29.48,2.0,WNW,19.6,34.5,0.00,Snow,Light Snow,290,2013-02-19 11:28:00
5:36 AM,25.0,21.0,85,29.48,1.8,WNW,18.4,-,0.00,Snow,Light Snow,290,2013-02-19 11:36:00
5:53 AM,24.1,21.0,88,29.52,1.2,West,18.4,29.9,0.00,Snow,Light Snow,280,2013-02-19 11:53:00
6:33 AM,21.9,18.0,85,29.52,1.8,WNW,27.6,35.7,0.00,Snow,Light Snow,300,2013-02-19 12:33:00
6:53 AM,21.9,17.1,82,29.57,1.5,WNW,24.2,33.4,0.00,Snow,Light Snow,300,2013-02-19 12:53:00
7:04 AM,21.9,17.1,82,29.55,1.0,WNW,27.6,31.1,0.00,Snow,Light Snow,290,2013-02-19 13:04:00
7:43 AM,19.9,15.1,81,29.57,0.8,WNW,26.5,34.5,0.00,Snow,Light Snow,290,2013-02-19 13:43:00
7:53 AM,19.0,12.9,77,29.62,1.0,WNW,25.3,31.1,0.00,Snow,Light Snow,300,2013-02-19 13:53:00
8:53 AM,17.1,12.0,81,29.65,0.8,WNW,19.6,-,0.00,Snow,Light Snow,290,2013-02-19 14:53:00
9:45 AM,16.0,10.0,77,29.65,1.0,WNW,19.6,29.9,0.00,Snow,Light Snow,300,2013-02-19 15:45:00
9:53 AM,16.0,10.0,77,29.68,1.0,WNW,20.7,-,0.00,Snow,Light Snow,290,2013-02-19 15:53:00
10:05 AM,15.1,10.0,80,29.66,0.8,WNW,18.4,29.9,0.00,Snow,Light Snow,300,2013-02-19 16:05:00
10:53 AM,14.0,9.0,80,29.72,0.5,WNW,23.0,33.4,0.00,Snow,Snow,300,2013-02-19 16:53:00
11:08 AM,15.1,9.0,77,29.70,1.0,WNW,18.4,32.2,0.00,Snow,Light Snow,290,2013-02-19 17:08:00
11:22 AM,14.0,8.1,77,29.70,0.8,WNW,23.0,29.9,0.00,Snow,Light Snow,290,2013-02-19 17:22:00
11:33 AM,14.0,8.1,77,29.71,1.2,WNW,20.7,32.2,0.00,Snow,Light Snow,290,2013-02-19 17:33:00
12:37 PM,15.1,7.0,70,29.74,2.5,WNW,20.7,29.9,0.00,Snow,Light Snow,300,2013-02-19 18:37:00
12:53 PM,14.0,6.1,71,29.79,2.0,WNW,24.2,28.8,0.00,Snow,Light Snow,290,2013-02-19 18:53:00
1:01 PM,14.0,7.0,74,29.76,1.8,WNW,20.7,31.1,0.00,Snow,Light Snow,290,2013-02-19 19:01:00
1:08 PM,14.0,6.1,71,29.76,2.0,West,21.9,33.4,0.00,Snow,Light Snow,280,2013-02-19 19:08:00
1:35 PM,14.0,6.1,71,29.77,4.0,WNW,21.9,28.8,0.00,,Haze,290,2013-02-19 19:35:00
1:53 PM,15.1,7.0,70,29.81,5.0,WNW,21.9,27.6,0.00,,Haze,290,2013-02-19 19:53:00
2:53 PM,14.0,5.0,67,29.85,9.0,West,20.7,-,N/A,,Partly Cloudy,280,2013-02-19 20:53:00
3:53 PM,15.1,3.9,61,29.89,10.0,West,23.0,28.8,N/A,,Clear,280,2013-02-19 21:53:00
4:53 PM,12.9,3.0,65,29.94,10.0,WNW,20.7,28.8,N/A,,Clear,300,2013-02-19 22:53:00
6:53 PM,10.9,1.0,64,30.04,10.0,NW,16.1,24.2,N/A,,Mostly Cloudy,320,2013-02-20 00:53:00
7:53 PM,10.0,-0.9,61,30.06,10.0,WNW,15.0,-,N/A,,Clear,300,2013-02-20 01:53:00
8:53 PM,8.1,-2.0,64,30.09,10.0,WNW,13.8,-,N/A,,Clear,300,2013-02-20 02:53:00
9:53 PM,7.0,-2.0,67,30.11,10.0,WNW,15.0,-,N/A,,Clear,290,2013-02-20 03:53:00
10:53 PM,7.0,-2.0,67,30.12,10.0,WNW,16.1,-,N/A,,Clear,290,2013-02-20 04:53:00
11:53 PM,8.1,-0.9,67,30.14,10.0,WNW,12.7,-,N/A,,Clear,300,2013-02-20 05:53:00